Time,TemperatureF,DewpointF,PressureIn,WindDirection,WindDirectionDegrees,WindSpeedMPH,WindSpeedGustMPH,Humidity,HourlyPrecipIn,Conditions,Clouds,dailyrainin,SoftwareType,DateUTC
2013-12-30 00:42:00,49.0,26.0,29.94,NNE,13,0.0,-999.0,41,-99.99,,,-99.99,,2013-12-30 08:42:00,
2013-12-30 00:52:00,49.0,26.0,29.94,NNE,13,0.0,-999.0,41,-99.99,,,-99.99,,2013-12-30 08:52:00,
2013-12-30 01:02:00,49.0,26.0,29.94,NNE,13,0.0,-999.0,41,-99.99,,,-99.99,,2013-12-30 09:02:00,
2013-12-30 06:42:00,44.0,30.0,29.96,NW,325,0.0,-999.0,58,-99.99,,,-99.99,,2013-12-30 14:42:00,
2013-12-30 06:52:00,44.0,30.0,29.96,NW,325,0.0,-999.0,58,-99.99,,,-99.99,,2013-12-30 14:52:00,
2013-12-30 07:02:00,44.0,30.0,29.96,NW,325,0.0,-999.0,58,-99.99,,,-99.99,,2013-12-30 15:02:00,
2013-12-30 09:43:00,47.0,31.0,30.00,WNW,303,0.0,-999.0,54,-99.99,,,-99.99,,2013-12-30 17:43:00,
2013-12-30 09:52:00,47.0,31.0,30.00,WNW,303,0.0,-999.0,54,-99.99,,,-99.99,,2013-12-30 17:52:00,
2013-12-30 10:02:00,47.0,31.0,30.00,WNW,303,0.0,-999.0,54,-99.99,,,-99.99,,2013-12-30 18:02:00,
2013-12-30 12:42:00,60.0,36.0,29.98,WSW,248,2.0,-999.0,40,-99.99,,,-99.99,,2013-12-30 20:42:00,
2013-12-30 12:52:00,60.0,36.0,29.98,WSW,248,2.0,-999.0,40,-99.99,,,-99.99,,2013-12-30 20:52:00,
2013-12-30 13:02:00,60.0,36.0,29.98,WSW,248,2.0,-999.0,40,-99.99,,,-99.99,,2013-12-30 21:02:00,
2013-12-30 15:42:00,64.0,37.0,29.96,West,266,2.0,-999.0,37,-99.99,,,-99.99,,2013-12-30 23:42:00,
2013-12-30 15:53:00,64.0,37.0,29.96,West,266,2.0,-999.0,37,-99.99,,,-99.99,,2013-12-30 23:53:00,
2013-12-30 16:02:00,64.0,37.0,29.96,West,266,2.0,-999.0,37,-99.99,,,-99.99,,2013-12-31 00:02:00,
2013-12-30 18:42:00,52.0,32.0,29.98,NE,46,1.0,-999.0,46,-99.99,,,-99.99,,2013-12-31 02:42:00,
2013-12-30 18:53:00,52.0,32.0,29.98,NE,46,1.0,-999.0,46,-99.99,,,-99.99,,2013-12-31 02:53:00,
2013-12-30 19:02:00,52.0,32.0,29.98,NE,46,1.0,-999.0,46,-99.99,,,-99.99,,2013-12-31 03:02:00,
2013-12-30 21:42:00,52.0,29.0,30.01,NNE,22,0.0,-999.0,41,-99.99,,,-99.99,,2013-12-31 05:42:00,
2013-12-30 21:53:00,52.0,29.0,30.01,NNE,22,0.0,-999.0,41,-99.99,,,-99.99,,2013-12-31 05:53:00,
2013-12-30 22:02:00,52.0,29.0,30.01,NNE,22,0.0,-999.0,41,-99.99,,,-99.99,,2013-12-31 06:02:00,